Hourly Weather Rudabánya

Today, 13 April, Tuesday

Time Temperature Precipitation Wind Pressure Humidity
00:00 +12°C° 0.4 mm 1 mps 746 mmHg 94%
01:00 +11°C° 0.4 mm 1 mps 746 mmHg 95%
02:00 +11°C° 0.1 mm 1 mps 746 mmHg 95%
03:00 +10°C° 0.1 mm 1 mps 746 mmHg 95%
04:00 +10°C° 0.1 mm 1 mps 746 mmHg 95%
05:00 +8°C° 0.5 mm 2 mps 747 mmHg 93%
06:00 +8°C° 0.5 mm 2 mps 747 mmHg 90%
07:00 +7°C° 0.5 mm 3 mps 747 mmHg 88%
08:00 +7°C° 0.8 mm 3 mps 747 mmHg 88%
09:00 +5°C° 0.8 mm 3 mps 748 mmHg 87%
10:00 +4°C° 0.8 mm 3 mps 748 mmHg 87%
11:00 +4°C° 0.2 mm 3 mps 748 mmHg 86%
12:00 +4°C° 0.2 mm 3 mps 748 mmHg 85%
13:00 +4°C° 0.2 mm 4 mps 748 mmHg 84%
14:00 +4°C° 0.1 mm 4 mps 748 mmHg 83%
15:00 +4°C° 0.1 mm 4 mps 747 mmHg 82%
16:00 +4°C° 0.1 mm 4 mps 747 mmHg 81%
17:00 +3°C° 0.1 mm 4 mps 747 mmHg 81%
18:00 +3°C° 0.1 mm 4 mps 747 mmHg 81%
19:00 +3°C° 0.1 mm 4 mps 747 mmHg 81%
20:00 +3°C° 0.3 mm 4 mps 747 mmHg 83%
21:00 +3°C° 0.3 mm 4 mps 747 mmHg 84%
22:00 +3°C° 0.3 mm 4 mps 747 mmHg 85%
23:00 +3°C° 0.2 mm 4 mps 747 mmHg 85%

Tomorrow, 14 April, Wednesday

Time Temperature Precipitation Wind Pressure Humidity
00:00 +3°C° 0.2 mm 4 mps 747 mmHg 86%
01:00 +3°C° 0.2 mm 3 mps 746 mmHg 86%
02:00 +2°C° 0.4 mm 3 mps 746 mmHg 86%
03:00 +2°C° 0.4 mm 3 mps 746 mmHg 87%
04:00 +2°C° 0.4 mm 3 mps 746 mmHg 87%
05:00 +2°C° 0.1 mm 3 mps 747 mmHg 84%
06:00 +3°C° 0.1 mm 3 mps 747 mmHg 81%
07:00 +3°C° 0.1 mm 4 mps 747 mmHg 78%
08:00 +3°C° 0 mm 4 mps 747 mmHg 74%
09:00 +4°C° 0 mm 4 mps 747 mmHg 70%
10:00 +5°C° 0 mm 5 mps 747 mmHg 66%
11:00 +5°C° 0 mm 5 mps 747 mmHg 65%
12:00 +5°C° 0 mm 5 mps 747 mmHg 64%
13:00 +5°C° 0 mm 5 mps 747 mmHg 62%
14:00 +5°C° 0.1 mm 4 mps 747 mmHg 64%
15:00 +5°C° 0.1 mm 3 mps 747 mmHg 66%
16:00 +5°C° 0.1 mm 3 mps 747 mmHg 69%
17:00 +5°C° 0.1 mm 2 mps 748 mmHg 72%
18:00 +4°C° 0.1 mm 2 mps 748 mmHg 75%
19:00 +4°C° 0.1 mm 2 mps 748 mmHg 78%
20:00 +4°C° 0 mm 2 mps 748 mmHg 80%
21:00 +4°C° 0 mm 1 mps 748 mmHg 82%
22:00 +4°C° 0 mm 1 mps 748 mmHg 84%
23:00 +4°C° 0 mm 1 mps 748 mmHg 86%

Day after tomorrow, 15 April, Thursday

Time Temperature Precipitation Wind Pressure Humidity
00:00 +4°C° 0 mm 1 mps 748 mmHg 88%
01:00 +4°C° 0 mm 1 mps 748 mmHg 90%
02:00 +4°C° 0 mm 1 mps 747 mmHg 90%
03:00 +3°C° 0 mm 1 mps 747 mmHg 90%
04:00 +3°C° 0 mm 1 mps 747 mmHg 90%
05:00 +4°C° 0 mm 1 mps 747 mmHg 86%
06:00 +4°C° 0 mm 1 mps 747 mmHg 82%
07:00 +4°C° 0 mm 2 mps 748 mmHg 78%
08:00 +5°C° 0 mm 2 mps 748 mmHg 73%
09:00 +6°C° 0 mm 2 mps 748 mmHg 68%
10:00 +6°C° 0 mm 2 mps 748 mmHg 62%
11:00 +7°C° 0 mm 2 mps 747 mmHg 60%
12:00 +8°C° 0 mm 2 mps 747 mmHg 58%
13:00 +9°C° 0 mm 1 mps 747 mmHg 56%
14:00 +9°C° 0.1 mm 1 mps 747 mmHg 58%
15:00 +9°C° 0.1 mm 1 mps 747 mmHg 61%
16:00 +9°C° 0.1 mm 1 mps 747 mmHg 64%
17:00 +8°C° 0.1 mm 1 mps 747 mmHg 72%
18:00 +6°C° 0.1 mm 1 mps 747 mmHg 81%
19:00 +4°C° 0.1 mm 2 mps 747 mmHg 89%
20:00 +5°C° 0 mm 1 mps 747 mmHg 90%
21:00 +5°C° 0 mm 1 mps 747 mmHg 90%
22:00 +4°C° 0 mm 1 mps 748 mmHg 90%
23:00 +3°C° 0 mm 0 mps 747 mmHg 90%

16 April, Friday

Time Temperature Precipitation Wind Pressure Humidity
00:00 +3°C° 0 mm 0 mps 747 mmHg 90%
01:00 +3°C° 0 mm 0 mps 747 mmHg 90%
02:00 +2°C° 0 mm 0 mps 747 mmHg 89%
03:00 +2°C° 0 mm 0 mps 747 mmHg 89%
04:00 +3°C° 0 mm 1 mps 747 mmHg 88%
05:00 +4°C° 0 mm 1 mps 747 mmHg 83%
06:00 +4°C° 0 mm 1 mps 747 mmHg 79%
07:00 +5°C° 0 mm 1 mps 747 mmHg 74%
08:00 +6°C° 0 mm 1 mps 747 mmHg 68%
09:00 +7°C° 0 mm 1 mps 747 mmHg 63%
10:00 +9°C° 0 mm 1 mps 747 mmHg 57%
11:00 +9°C° 0 mm 1 mps 747 mmHg 58%
12:00 +9°C° 0 mm 0 mps 747 mmHg 58%
13:00 +9°C° 0 mm 0 mps 747 mmHg 58%
14:00 +10°C° 0 mm 0 mps 747 mmHg 58%
15:00 +10°C° 0 mm 0 mps 747 mmHg 58%
16:00 +11°C° 0 mm 1 mps 747 mmHg 58%
17:00 +10°C° 0 mm 1 mps 747 mmHg 66%
18:00 +9°C° 0 mm 1 mps 748 mmHg 74%
19:00 +8°C° 0 mm 1 mps 748 mmHg 82%
20:00 +7°C° 0 mm 1 mps 748 mmHg 84%
21:00 +7°C° 0 mm 1 mps 748 mmHg 86%
22:00 +7°C° 0 mm 1 mps 749 mmHg 88%
23:00 +6°C° 0 mm 1 mps 748 mmHg 90%

17 April, Saturday

Time Temperature Precipitation Wind Pressure Humidity
00:00 +6°C° 0 mm 1 mps 748 mmHg 91%
01:00 +6°C° 0 mm 1 mps 748 mmHg 93%
02:00 +5°C° 0 mm 0 mps 748 mmHg 92%
03:00 +4°C° 0 mm 0 mps 748 mmHg 92%
04:00 +4°C° 0 mm 0 mps 748 mmHg 92%
05:00 +5°C° 0 mm 0 mps 749 mmHg 91%
06:00 +5°C° 0 mm 0 mps 749 mmHg 89%
07:00 +6°C° 0 mm 1 mps 749 mmHg 88%
08:00 +7°C° 0 mm 1 mps 749 mmHg 84%
09:00 +8°C° 0 mm 1 mps 749 mmHg 80%
10:00 +9°C° 0 mm 1 mps 749 mmHg 76%
11:00 +9°C° 0 mm 1 mps 748 mmHg 74%
12:00 +10°C° 0 mm 1 mps 748 mmHg 72%
13:00 +9°C° 0 mm 2 mps 748 mmHg 70%
14:00 +9°C° 0 mm 2 mps 748 mmHg 71%
15:00 +9°C° 0 mm 2 mps 748 mmHg 72%
16:00 +9°C° 0 mm 3 mps 748 mmHg 73%
17:00 +8°C° 0 mm 2 mps 748 mmHg 78%
18:00 +7°C° 0 mm 2 mps 748 mmHg 83%
19:00 +6°C° 0 mm 2 mps 749 mmHg 88%
20:00 +5°C° 0 mm 2 mps 749 mmHg 89%
21:00 +5°C° 0 mm 2 mps 749 mmHg 90%
22:00 +4°C° 0 mm 2 mps 749 mmHg 91%
23:00 +4°C° 0 mm 2 mps 749 mmHg 90%

18 April, Sunday

Time Temperature Precipitation Wind Pressure Humidity
00:00 +4°C° 0 mm 2 mps 749 mmHg 90%
01:00 +4°C° 0 mm 2 mps 749 mmHg 89%
02:00 +3°C° 0 mm 2 mps 749 mmHg 89%
03:00 +3°C° 0 mm 2 mps 749 mmHg 90%
04:00 +4°C° 0 mm 1 mps 749 mmHg 90%
05:00 +5°C° 0 mm 1 mps 749 mmHg 85%
06:00 +6°C° 0 mm 1 mps 749 mmHg 81%
07:00 +7°C° 0 mm 1 mps 749 mmHg 76%
08:00 +8°C° 0 mm 1 mps 749 mmHg 71%
09:00 +10°C° 0 mm 1 mps 749 mmHg 66%
10:00 +10°C° 0 mm 2 mps 749 mmHg 62%
11:00 +12°C° 0 mm 2 mps 749 mmHg 60%
12:00 +13°C° 0 mm 2 mps 749 mmHg 59%
13:00 +14°C° 0 mm 2 mps 748 mmHg 58%
14:00 +13°C° 0 mm 2 mps 748 mmHg 60%
15:00 +13°C° 0 mm 2 mps 748 mmHg 62%
16:00 +13°C° 0 mm 2 mps 748 mmHg 64%
17:00 +12°C° 0.1 mm 2 mps 748 mmHg 69%
18:00 +10°C° 0.1 mm 2 mps 749 mmHg 75%
19:00 +10°C° 0.1 mm 1 mps 749 mmHg 80%
20:00 +9°C° 0 mm 1 mps 749 mmHg 82%
21:00 +9°C° 0 mm 1 mps 749 mmHg 85%
22:00 +7°C° 0 mm 2 mps 749 mmHg 87%
23:00 +7°C° 0 mm 2 mps 749 mmHg 88%
Show more